Погода в Обашеве

Россия / Владимирская область     56°37′30″N   38°29′01″E
темп.,
°C
ветер,
м/с
пор.,
м/с
влажн.,
%
обл.,
%
осадки,
мм/ч
давл.,
гПа
погр.,
м
13 апреля, вт
вт1300:00+7вюв4128690 0.0 1029359
03:00+7юв3109495 0.0 1027303
06:00+8ююв4138885 0.0 1026310
09:00+13ююв41464100 0.0 1025432
12:00+18ю594581 0.0 1025814
15:00+19ю583984 0.0 10241342
18:00+17ю394979 0.0 1023332
21:00+12ююв3116899 0.0 1023205
14 апреля, ср
ср1400:00+11ююв414640 0.0 1023324
03:00+10ю415655 0.0 1022353
06:00+9ююв311717 0.0 1022226
09:00+13ююв4956100 0.0 1021345
12:00+17ю484299 0.0 1020781
15:00+19ю4633100 0.0 10191592
18:00+15ююв2548100 0.0 1018114
21:00+11ююв236157 0.0 101948
15 апреля, чт
чт1500:00+9ююв2270100 0.0 101938
03:00+8ююв2271100 0.0 101811
06:00+8вюв1172100 0.0 101910
09:00+12в2358100 0.0 1019192
12:00+16в234498 0.0 1018764
15:00+18всв3339100 0.0 10181574
18:00+15св4954100 0.0 1018443
21:00
16 апреля, пт
пт1600:00+7св41188100 0.0 1021408
03:00+5св41192100 0.0 1021384
06:00+4св41293100 0.0 1022417
09:00+7всв597782 0.0 1022533
12:00+11всв576257 0.0 1023951
15:00+13св575552 0.0 10231268
18:00+11всв486013 0.0 10231190
21:00+7св4135396 0.0 1026516
17 апреля, сб
сб1700:00+5всв413635 0.0 1026445
03:00+3св4117346 0.0 1027347
06:00+2св31177100 0.0 1028338
09:00+7всв51055100 0.0 1029704
12:00+10всв57405 0.0 10291427
15:00+11св57375 0.0 10291568
18:00+10св47461 0.0 10291374
21:00+5св310650 0.0 1031289